Hilton Head Island, SC

4:43 PM EDT on May 29, 2017 (GMT -0400)
Hilton Head

Weather History for KHXD - April, 2013

Change the Weather History Date:

Saturday, April 27, 2013

  Actual Average Record
Temperature  
Mean Temperature 66 °F -  
Max Temperature 71 °F 78 °F 95 °F (1985)
Min Temperature 62 °F 56 °F 40 °F (1972)
Cooling Degree Days 2    
Growing Degree Days 16 (Base 50)    
Moisture  
Dew Point 58 °F    
Average Humidity 73    
Maximum Humidity 88    
Minimum Humidity 57    
Precipitation  
Precipitation 0.00 in - - ()
Sea Level Pressure  
Sea Level Pressure 30.29 in    
Wind  
Wind Speed 5 mph (NE)    
Max Wind Speed 12 mph    
Max Gust Speed 20 mph    
Visibility 10 miles    
Events      
Averages and records for this station are not official NWS values.
T = Trace of Precipitation, MM = Missing Value Source: NWS Daily Summary

Daily Weather History Graph

Daily Weather History Graph

Search for Another Location

Airport or City:

Trip Planner

Search our weather history database for the weather conditions in past years. The results will help you decide how hot, cold, wet, or windy it might be!

Date:

Astronomy

Apr. 27, 2013 Rise Set
Actual Time 6:40 AM EDT 8:00 PM EDT
Civil Twilight 6:14 AM EDT 8:26 PM EDT
Nautical Twilight 5:43 AM EDT 8:57 PM EDT
Astronomical Twilight 5:11 AM EDT 9:29 PM EDT
Moon 10:22 PM EDT (4/27) 8:02 AM EDT (4/27)
Length of Visible Light 14h 12m
Length of Day
13h 20m
Waning Gibbous, 95% of the Moon is Illuminated
Apr 27
Waning Gibbous
May 2
Last Quarter
May 9
New
May 18
First Quarter
May 25
Full

Hourly Weather History & Observations

Time (EDT) Temp. Dew Point Humidity Pressure Visibility Wind Dir Wind Speed Gust Speed Precip Events Conditions
12:15 AM - - N/A% 30.32 in 10.0 mi ENE 5.8 mph - 0.00 in   Clear
12:35 AM - - N/A% 30.32 in 10.0 mi ENE 5.8 mph - 0.00 in   Clear
12:55 AM - - N/A% 30.32 in 10.0 mi East 5.8 mph - 0.00 in   Partly Cloudy
1:15 AM - - N/A% 30.32 in 10.0 mi East 4.6 mph - 0.00 in   Scattered Clouds
1:35 AM - - N/A% 30.32 in 10.0 mi NE 3.5 mph - 0.00 in   Partly Cloudy
1:55 AM - - N/A% 30.32 in 10.0 mi ENE 3.5 mph - 0.00 in   Scattered Clouds
2:15 AM - - N/A% 30.32 in 10.0 mi NE 3.5 mph - 0.00 in   Scattered Clouds
2:35 AM - - N/A% 30.32 in 10.0 mi NNE 4.6 mph - 0.00 in   Partly Cloudy
2:55 AM - - N/A% 30.31 in 10.0 mi NE 3.5 mph - 0.00 in   Scattered Clouds
3:15 AM - - N/A% 30.30 in 10.0 mi NE 3.5 mph - 0.00 in   Partly Cloudy
3:35 AM - - N/A% 30.31 in 10.0 mi Calm Calm - 0.00 in   Clear
3:55 AM - - N/A% 30.31 in 10.0 mi Calm Calm - 0.00 in   Clear
4:15 AM - - N/A% 30.31 in 10.0 mi Calm Calm - 0.00 in   Clear
4:55 AM - - N/A% 30.30 in 10.0 mi North 3.5 mph - 0.00 in   Partly Cloudy
5:15 AM - - N/A% 30.29 in 10.0 mi NNE 3.5 mph - 0.00 in   Clear
5:35 AM - - N/A% 30.29 in 10.0 mi Calm Calm - 0.00 in   Partly Cloudy
5:55 AM - - N/A% 30.29 in 10.0 mi Calm Calm - 0.00 in   Clear
6:15 AM - - N/A% 30.30 in 10.0 mi North 4.6 mph - 0.00 in   Clear
6:50 AM 64.4 °F 59.0 °F 83% 30.31 in 10.0 mi NNE 5.8 mph - N/A   Partly Cloudy
7:50 AM 62.6 °F 59.0 °F 88% 30.32 in 10.0 mi NNE 4.6 mph - N/A   Partly Cloudy
8:50 AM 64.4 °F 60.8 °F 88% 30.34 in 10.0 mi NNE 5.8 mph - N/A   Clear
9:50 AM 66.2 °F 59.0 °F 78% 30.32 in 10.0 mi NE 8.1 mph - N/A   Scattered Clouds
10:52 AM 68.0 °F 59.0 °F 73% 30.31 in 10.0 mi NE 5.8 mph - N/A   Clear
11:52 AM 69.8 °F 59.0 °F 68% 30.31 in 10.0 mi NNE 5.8 mph - N/A   Clear
12:50 PM 71.6 °F 57.2 °F 60% 30.30 in 10.0 mi NE 9.2 mph - N/A   Clear
1:50 PM 71.6 °F 57.2 °F 60% 30.29 in 10.0 mi NE 6.9 mph - N/A   Clear
2:50 PM 71.6 °F 55.4 °F 57% 30.29 in 10.0 mi ENE 9.2 mph - N/A   Partly Cloudy
3:50 PM 69.8 °F 59.0 °F 68% 30.27 in 10.0 mi NE 9.2 mph 17.3 mph N/A   Clear
4:50 PM 69.8 °F 60.8 °F 73% 30.26 in 10.0 mi ENE 11.5 mph 19.6 mph N/A   Clear
5:50 PM 69.8 °F 60.8 °F 73% 30.26 in 10.0 mi NE 11.5 mph 17.3 mph N/A   Clear
6:50 PM 68.0 °F 59.0 °F 73% 30.26 in 10.0 mi NE 9.2 mph 16.1 mph N/A   Scattered Clouds
7:50 PM 66.2 °F 59.0 °F 78% 30.27 in 10.0 mi NE 9.2 mph 16.1 mph N/A   Mostly Cloudy
9:15 PM 66.2 °F 59.0 °F 78% 30.26 in 10.0 mi NNE 10.4 mph 18.4 mph 0.00 in   Partly Cloudy
9:35 PM 66.2 °F 59.0 °F 78% 30.27 in 10.0 mi NNE 9.2 mph 16.1 mph 0.00 in   Clear
9:55 PM 66.2 °F 57.2 °F 73% 30.26 in 10.0 mi NE 8.1 mph - 0.00 in   Clear
10:15 PM 66.2 °F 57.2 °F 73% 30.26 in 10.0 mi NNE 10.4 mph - 0.00 in   Clear
10:35 PM 66.2 °F 57.2 °F 73% 30.26 in 10.0 mi NE 8.1 mph - 0.00 in   Clear
10:55 PM 66.2 °F 57.2 °F 73% 30.26 in 10.0 mi NNE 9.2 mph 16.1 mph 0.00 in   Clear
11:15 PM 66.2 °F 57.2 °F 73% 30.25 in 10.0 mi NE 9.2 mph 17.3 mph 0.00 in   Clear
11:35 PM 66.2 °F 57.2 °F 73% 30.25 in 10.0 mi NE 8.1 mph - 0.00 in   Clear
11:55 PM 66.2 °F 57.2 °F 73% 30.24 in 10.0 mi NE 5.8 mph - 0.00 in   Scattered Clouds